Vertical_Velocity
4 -7 2 1 2 -0 1 -1 -1 -0 0 -1 0 -1 1 0 -4 -6 -1 1 -2 -3 1 2 1 2 1 -0 -8 2 2 5 4 4 -3 -1 -1 -1 -2 -1 0 -1 1 -2 7 -1 -1
-2 -3 -3 -1 2 0 -3 3 -0 -1 0 2 -4 -1 1 -2 -1 1 -5 3 4 -3 -0 2 3 3 1 -1 2 -2 1 3 1 -1 -1 -0 -5 -5 0 -1 -2 3 -1 3 8 3 1
-2 -0 -1 -1 -3 0 1 -3 5 1 -0 1 1 -1 1 -0 -1 1 3 -0 3 2 -1 2 3 4 1 -15 0 2 2 4 4 -3 -6 -0 -1 1 2 1 7 2 -7 1 2 0 1
-3 3 0 -0 -5 -0 2 -1 -0 -1 0 1 -0 -0 -2 0 -1 -1 -1 -6 4 2 -0 2 4 5 -9 3 2 0 1 3 4 8 7 5 4 3 -0 6 -1 -2 -4 -1 -2 1 3
1 -3 -2 -0 2 -3 -1 0 -6 2 -2 2 2 0 -0 1 -0 2 -0 8 -4 2 2 1 3 2 -9 -0 0 1 4 -1 3 3 6 9 5 -1 5 -3 -1 1 -2 0 4 1 -1
2 -1 -2 -1 0 2 4 -2 3 -2 0 -4 1 2 2 -0 1 1 -0 4 -4 0 6 4 2 4 4 -6 -0 -1 2 5 -3 3 7 8 3 -1 -1 -2 -5 -2 1 1 -1 3 -5
3 -2 -2 -2 0 -1 -0 2 -1 -0 0 -1 -2 -0 0 -1 1 3 2 10 -8 2 8 -9 -4 2 -0 3 7 6 5 4 3 6 -1 2 -4 -4 -5 -2 -1 -2 -2 -1 2 3 -10
-5 -3 2 -1 1 0 4 -2 0 0 1 1 -2 -2 2 -0 1 1 -0 2 0 5 -1 -6 2 5 3 5 -0 8 7 -3 -0 -1 1 -0 -4 -3 -1 0 -1 -0 -1 2 4 1 -11
-4 -3 -1 -2 -1 1 -0 3 -1 0 2 2 2 -2 -0 1 0 2 -3 -1 6 7 1 0 -6 -3 -1 1 -2 -2 3 1 -3 0 0 -4 -3 -0 -1 1 1 0 -3 0 -7 3 -0
-3 -1 1 -2 2 -1 3 1 2 0 -3 5 1 -1 -2 2 0 -0 -10 9 2 3 -1 -4 1 -5 -4 4 -2 1 6 -9 2 -6 -1 -2 -2 -2 1 -1 -3 2 -2 -3 -1 -0 -2
-3 -1 -6 -4 -2 -2 -2 -1 -2 0 2 -7 5 2 -1 2 -2 -1 1 -3 4 4 -1 -0 2 5 3 -4 -2 4 0 2 -2 -1 -6 -16 1 1 1 -7 -2 -9 -4 -6 -2 -1 -4
-4 -0 -2 -3 -0 -1 -1 -5 2 -1 0 4 -3 2 1 1 -0 1 -9 -1 3 -9 -10 -1 1 0 0 1 1 5 -0 0 0 -2 0 -4 1 -3 -10 0 -4 -1 -3 -2 -0 -1 3
-1 -6 3 -2 -1 -5 -0 2 0 -3 1 -0 6 -4 2 -0 -1 5 -17 5 -5 -1 -7 1 -1 0 -1 1 2 1 -1 5 -3 -2 1 1 -0 -0 -2 -3 1 -0 1 1 1 4 -4
-2 -4 -5 -0 -3 -4 -2 -1 1 1 -7 2 1 5 -2 -2 2 0 11 2 3 -4 0 -0 -0 2 -2 -2 0 1 3 3 1 -1 -1 -3 3 -2 -2 -6 -11 -2 -6 -7 -5 -2 -1
-5 -3 -3 -3 1 -2 -2 -0 0 4 0 -6 2 3 4 -1 -3 1 2 -1 -5 1 1 0 -2 0 1 2 -6 -1 -1 -2 -4 -2 -6 -1 0 0 -0 0 -9 -5 2 -8 -4 -1 -2
-1 -2 -2 1 -1 -4 -0 -2 3 -2 2 -1 -1 2 -0 4 0 -2 -3 -3 -1 -0 0 1 1 -1 -1 -0 -0 2 0 -4 -1 -1 -0 -3 -2 -0 1 -0 1 -7 -5 -0 -1 -0 0
-3 -1 5 -5 -1 -2 -3 -2 -3 -1 3 -5 -3 0 2 -1 7 -2 -1 -1 -0 -0 -0 -1 0 -0 -1 -1 -1 -1 -5 -1 -0 1 -0 -1 -5 -0 0 -1 -0 2 1 1 -3 -2 -0
-1 -2 -5 -0 -0 -1 -2 -1 -6 -0 -2 3 -3 -4 -2 7 3 0 -0 -1 -0 -1 0 -1 -1 -0 1 0 0 1 -3 -0 -0 1 -1 -2 -3 -1 -0 -0 -1 -0 -0 -1 1 -1 -1
-3 -1 -4 1 -3 1 -4 -2 1 -3 -2 -2 -2 -2 -2 0 -2 -1 -1 -0 0 1 -1 -0 0 -2 -0 -0 -2 0 -0 0 0 0 -2 -5 -1 -1 2 1 -0 0 0 -0 -0 -2 -2
-1 -4 3 -4 -3 -5 -2 1 -1 1 -3 1 -1 -5 -1 0 1 -0 0 -2 -0 -0 -0 -0 -1 -0 0 1 1 -3 -1 -0 -0 -0 1 -4 -1 -2 -7 -4 -3 1 1 0 -1 -1 -2
-1 2 -4 -0 -5 -4 -2 -5 1 -2 3 2 -0 -0 0 -3 0 -0 1 -0 0 -1 0 1 0 0 -3 0 1 0 1 0 -1 -0 -0 -3 -2 -2 1 1 -1 0 -0 0 -1 1 0
-0 -5 -6 -2 -0 -4 -3 1 -1 -2 -4 -1 1 -1 0 -0 -0 0 -1 -3 -0 -0 -2 -2 2 -0 -0 -1 -5 -2 -3 -1 -5 4 -1 -1 2 -1 1 0 -1 -1 0 -0 -0 1 -1
-1 3 -3 -1 -2 -3 -0 -5 -6 -6 -2 -4 0 -1 2 -0 -1 -1 -0 -1 -1 -0 -0 1 1 -1 1 -2 -1 -2 -1 -0 -1 -3 -0 -0 -2 -1 2 -0 -1 -2 0 1 1 0 -1
-1 1 1 -5 -3 -1 -2 -1 -3 -4 -4 -3 -1 0 -1 -3 -1 0 -0 1 0 0 2 0 -0 -1 1 -1 -5 -1 -4 -2 -2 1 -2 -1 -1 -2 1 1 -4 -5 0 1 -4 1 -0
-2 -1 -2 -1 -1 -3 -0 -1 -3 1 -3 -4 -2 -0 0 -1 1 -1 -2 1 -0 -1 -0 1 -0 0 8 2 -1 1 2 0 -1 1 1 -1 -1 -2 -4 -0 -2 2 -0 -2 -2 1 -0
-2 -1 1 -4 -3 -1 -7 -3 -3 -1 1 -2 -4 1 2 0 -0 -1 1 1 0 -0 -3 -1 -1 5 -0 1 0 -1 -2 -2 2 0 -0 -1 -2 -6 1 -3 -3 -1 0 0 0 -5 -1
-4 0 2 -4 1 0 -2 -1 -1 3 -0 0 -2 0 1 1 -0 -0 1 0 1 1 -0 -0 0 -1 1 -0 0 -1 -1 1 -1 -1 1 -1 -2 -2 0 -1 -4 -2 -0 -0 -9 -8 -2
0 -2 2 0 -3 -1 -3 -5 -4 -2 4 -2 -1 -1 2 1 -1 0 0 -0 -1 1 -1 -1 -2 -2 0 1 -1 -0 -1 0 -3 0 0 -2 -3 -0 -1 -2 -5 0 -2 -6 -3 4 -0
1 -2 -3 -0 1 -1 2 -3 -3 -4 2 1 1 -1 1 1 -1 1 1 -0 0 2 -0 1 1 0 1 -1 -1 -2 -1 -2 -1 -1 -1 -1 -0 -4 -3 -4 0 1 0 2 -1 -5 0
Height
1504 1501 1498 1493 1488 1485 1481 1478 1475 1472 1469 1467 1464 1462 1460 1458 1458 1456 1456 1453 1453 1452 1454 1456 1459 1461 1463 1464 1461 1460 1460 1463 1469 1473 1477 1481 1486 1489 1492 1493 1494 1496 1504 1506 1509 1509 1516
1503 1497 1494 1491 1487 1482 1479 1477 1473 1470 1468 1465 1462 1460 1457 1455 1455 1454 1455 1452 1450 1451 1452 1455 1458 1460 1461 1464 1460 1461 1461 1462 1466 1471 1475 1480 1484 1489 1490 1491 1495 1500 1504 1512 1516 1515 1521
1500 1495 1491 1488 1484 1482 1477 1475 1472 1468 1465 1462 1460 1457 1454 1453 1452 1451 1450 1450 1449 1450 1451 1454 1457 1460 1460 1457 1458 1459 1461 1462 1466 1470 1472 1479 1483 1488 1488 1492 1496 1499 1511 1516 1518 1519 1526
1499 1495 1491 1486 1483 1479 1475 1471 1469 1465 1462 1459 1456 1454 1452 1450 1450 1449 1449 1449 1447 1448 1450 1454 1458 1460 1457 1455 1457 1458 1460 1463 1467 1471 1476 1480 1483 1487 1489 1490 1494 1500 1507 1516 1517 1518 1523
1500 1495 1491 1486 1481 1478 1474 1470 1466 1463 1459 1457 1453 1450 1448 1447 1447 1447 1447 1447 1447 1449 1451 1455 1458 1459 1455 1452 1454 1457 1458 1461 1465 1471 1476 1480 1484 1486 1487 1492 1501 1500 1511 1509 1518 1522 1520
1500 1496 1491 1485 1481 1476 1472 1467 1464 1460 1457 1454 1450 1447 1444 1444 1445 1446 1447 1447 1449 1452 1453 1457 1459 1462 1452 1450 1451 1455 1457 1459 1463 1470 1477 1479 1482 1485 1490 1494 1501 1502 1506 1506 1514 1527 1531
1501 1496 1490 1484 1480 1475 1471 1467 1461 1458 1454 1449 1447 1444 1442 1442 1442 1445 1447 1449 1455 1458 1451 1446 1448 1446 1445 1447 1450 1453 1456 1459 1463 1469 1474 1475 1483 1482 1484 1488 1488 1493 1500 1516 1526 1532 1538
1498 1493 1489 1486 1482 1476 1470 1465 1462 1456 1451 1446 1442 1440 1439 1438 1440 1442 1444 1446 1448 1449 1447 1444 1445 1445 1444 1446 1449 1452 1455 1457 1461 1468 1471 1479 1476 1477 1481 1485 1487 1492 1507 1527 1533 1535 1539
1497 1493 1489 1484 1479 1476 1471 1465 1458 1455 1448 1443 1439 1437 1436 1436 1437 1440 1442 1445 1447 1446 1445 1440 1440 1442 1444 1446 1446 1448 1453 1455 1460 1467 1469 1473 1470 1474 1479 1485 1489 1493 1502 1517 1519 1542 1547
1496 1492 1489 1484 1479 1474 1468 1463 1458 1451 1447 1441 1437 1433 1432 1433 1439 1439 1442 1446 1446 1447 1448 1439 1438 1437 1442 1443 1446 1448 1452 1455 1460 1465 1469 1470 1468 1470 1478 1481 1485 1493 1492 1503 1521 1520 1524
1497 1494 1489 1484 1479 1471 1466 1460 1454 1449 1442 1440 1437 1433 1431 1433 1435 1439 1444 1445 1447 1448 1454 1436 1436 1435 1437 1443 1443 1446 1450 1454 1459 1461 1466 1466 1467 1471 1475 1473 1479 1485 1488 1499 1509 1515 1526
1497 1495 1488 1482 1478 1472 1466 1459 1453 1445 1441 1438 1436 1434 1431 1434 1436 1440 1443 1445 1450 1454 1453 1434 1433 1435 1438 1440 1443 1446 1450 1455 1455 1459 1460 1462 1461 1463 1465 1467 1473 1481 1493 1502 1508 1513 1512
1497 1493 1488 1483 1476 1471 1464 1456 1449 1445 1441 1440 1436 1435 1435 1435 1438 1439 1444 1446 1454 1458 1430 1434 1434 1433 1436 1441 1443 1445 1448 1452 1456 1462 1465 1462 1461 1460 1460 1469 1473 1475 1488 1511 1516 1512 1501
1499 1494 1489 1482 1476 1468 1461 1456 1450 1444 1440 1439 1439 1436 1436 1438 1438 1440 1442 1450 1451 1437 1434 1433 1431 1434 1436 1438 1442 1445 1447 1451 1451 1453 1461 1465 1471 1460 1456 1460 1469 1475 1475 1487 1490 1496 1498
1498 1492 1487 1482 1474 1469 1464 1457 1451 1443 1439 1440 1441 1440 1437 1437 1439 1441 1444 1454 1446 1440 1442 1440 1432 1435 1438 1436 1439 1443 1446 1445 1445 1449 1454 1459 1457 1456 1456 1457 1457 1467 1471 1468 1481 1486 1493
1497 1492 1486 1482 1476 1469 1462 1456 1449 1444 1442 1440 1441 1441 1440 1438 1438 1442 1445 1443 1442 1441 1442 1440 1439 1433 1437 1435 1438 1440 1444 1441 1443 1446 1448 1448 1457 1457 1456 1457 1457 1459 1461 1470 1474 1483 1483
1498 1493 1487 1481 1474 1468 1461 1456 1451 1445 1442 1440 1443 1442 1441 1439 1441 1443 1443 1441 1441 1440 1442 1442 1442 1440 1435 1432 1433 1436 1435 1443 1443 1445 1446 1447 1450 1462 1459 1465 1460 1461 1462 1463 1463 1471 1472
1499 1494 1489 1481 1476 1470 1463 1457 1451 1447 1442 1443 1441 1445 1443 1443 1443 1441 1441 1441 1443 1440 1441 1440 1440 1443 1443 1442 1431 1434 1435 1444 1445 1444 1444 1446 1455 1465 1466 1470 1470 1470 1468 1466 1461 1477 1483
1500 1494 1487 1483 1478 1471 1462 1457 1453 1449 1445 1442 1441 1443 1444 1443 1446 1445 1441 1440 1440 1440 1440 1439 1437 1436 1440 1444 1444 1441 1442 1445 1445 1445 1444 1446 1456 1470 1466 1471 1472 1471 1477 1477 1475 1471 1476
1501 1495 1490 1486 1477 1471 1464 1458 1454 1448 1445 1444 1441 1444 1442 1442 1443 1442 1441 1438 1439 1440 1439 1438 1437 1438 1440 1441 1446 1447 1448 1446 1445 1445 1444 1445 1458 1448 1438 1455 1461 1469 1473 1476 1472 1468 1468
1501 1497 1493 1486 1479 1473 1468 1460 1453 1449 1445 1444 1442 1446 1448 1446 1441 1443 1442 1438 1438 1438 1439 1438 1438 1437 1437 1442 1443 1444 1450 1447 1445 1446 1446 1446 1460 1466 1471 1470 1472 1478 1476 1477 1482 1497 1471
1502 1497 1493 1487 1482 1477 1470 1463 1456 1450 1446 1446 1446 1446 1445 1445 1445 1445 1441 1438 1436 1436 1437 1437 1436 1433 1435 1434 1434 1438 1442 1445 1443 1446 1452 1452 1461 1461 1477 1474 1475 1487 1487 1488 1495 1506 1511
1502 1495 1491 1488 1482 1476 1472 1465 1458 1454 1451 1450 1452 1450 1448 1446 1444 1445 1446 1441 1439 1438 1436 1437 1436 1436 1436 1434 1435 1437 1440 1441 1443 1445 1450 1452 1457 1461 1475 1481 1478 1477 1497 1497 1504 1510 1507
1502 1498 1493 1487 1483 1478 1474 1468 1463 1459 1456 1455 1455 1452 1450 1447 1445 1446 1445 1443 1441 1441 1440 1438 1437 1437 1438 1436 1437 1441 1443 1446 1446 1448 1449 1453 1457 1466 1481 1479 1484 1506 1507 1506 1508 1517 1516
1500 1498 1493 1487 1484 1480 1476 1472 1466 1461 1459 1456 1456 1456 1454 1452 1450 1446 1447 1445 1442 1441 1441 1440 1438 1438 1439 1438 1440 1443 1445 1445 1450 1449 1449 1452 1457 1474 1476 1482 1499 1507 1507 1506 1501 1517 1521
1500 1496 1493 1489 1483 1479 1476 1471 1466 1462 1460 1457 1457 1455 1452 1452 1451 1451 1449 1446 1444 1442 1442 1440 1438 1438 1440 1439 1436 1454 1448 1440 1451 1450 1449 1449 1450 1456 1476 1463 1463 1500 1504 1504 1505 1515 1520
1499 1496 1490 1486 1483 1479 1475 1471 1467 1464 1461 1457 1456 1455 1453 1451 1450 1448 1448 1448 1445 1443 1443 1440 1439 1441 1440 1440 1439 1454 1456 1448 1451 1451 1456 1454 1459 1464 1468 1491 1496 1503 1504 1504 1499 1507 1516
1497 1493 1490 1484 1480 1478 1471 1469 1467 1464 1460 1457 1455 1454 1453 1450 1450 1448 1446 1446 1445 1444 1445 1441 1442 1440 1441 1442 1442 1448 1454 1460 1464 1473 1471 1461 1464 1474 1485 1495 1484 1503 1506 1501 1509 1511 1516
1495 1491 1488 1483 1480 1476 1473 1468 1464 1463 1459 1455 1454 1453 1451 1450 1450 1449 1447 1446 1446 1445 1445 1441 1441 1439 1440 1440 1447 1453 1464 1468 1469 1474 1475 1476 1483 1477 1496 1499 1504 1505 1504 1506 1508 1511 1519